| time (UTC) | temp F | wind direction | speed knots | gust knots | rain 1hr in | rain 24hr in | rain mn in | humidity % | barometer mb |
| 20260505092843 | 52 | 165 | 0.0 | 0.0 | 0.00 | 0.23 | 0.08 | 92 | 1015.2 |
| 20260505090700 | 52 | 174 | 0.0 | 0.0 | 0.00 | 0.23 | 0.08 | 92 | 1015.5 |
| 20260505085703 | 52 | 174 | 0.0 | 0.0 | 0.00 | 0.23 | 0.08 | 91 | 1015.7 |
| 20260505084646 | 52 | 174 | 0.0 | 0.0 | 0.00 | 0.23 | 0.08 | 92 | 1015.8 |
| 20260505083623 | 52 | 174 | 0.0 | 0.0 | 0.01 | 0.23 | 0.08 | 91 | 1015.6 |
| 20260505082622 | 52 | 174 | 0.0 | 0.0 | 0.01 | 0.21 | 0.08 | 91 | 1015.7 |
| 20260505081645 | 52 | 174 | 0.0 | 0.0 | 0.04 | 0.21 | 0.06 | 91 | 1015.7 |
| 20260505080646 | 52 | 174 | 0.0 | 0.0 | 0.04 | 0.21 | 0.06 | 91 | 1015.8 |
| 20260505075655 | 52 | 174 | 0.0 | 0.0 | 0.08 | 0.20 | 0.06 | 91 | 1015.7 |
| 20260505074704 | 52 | 174 | 0.0 | 0.9 | 0.16 | 0.19 | 0.05 | 91 | 1015.6 |
| 20260505073717 | 52 | 142 | 0.0 | 0.0 | 0.12 | 0.17 | 0.03 | 91 | 1015.7 |
| 20260505072714 | 52 | 140 | 0.0 | 0.9 | 0.01 | 0.15 | 0.01 | 91 | 1015.9 |
| 20260505071653 | 52 | 170 | 0.0 | 0.0 | 0.00 | 0.14 | 0.00 | 91 | 1016.0 |
| 20260505070707 | 52 | 169 | 0.0 | 0.0 | 0.00 | 0.14 | 0.00 | 90 | 1016.1 |
| 20260505065715 | 52 | 185 | 0.0 | 1.7 | 0.00 | 0.14 | 0.15 | 90 | 1015.9 |
| 20260505064651 | 52 | 173 | 0.0 | 0.0 | 0.00 | 0.14 | 0.15 | 90 | 1015.9 |
| 20260505063715 | 52 | 173 | 0.0 | 0.0 | 0.04 | 0.14 | 0.15 | 90 | 1015.7 |
| 20260505062655 | 52 | 173 | 0.0 | 0.0 | 0.04 | 0.14 | 0.15 | 90 | 1015.5 |
| 20260505061714 | 52 | 173 | 0.0 | 0.0 | 0.01 | 0.13 | 0.13 | 89 | 1015.7 |
| 20260505060649 | 52 | 173 | 0.0 | 0.0 | 0.01 | 0.13 | 0.13 | 89 | 1015.9 |
| 20260505055646 | 52 | 173 | 0.0 | 0.0 | 0.04 | 0.13 | 0.13 | 89 | 1015.9 |
| 20260505054706 | 52 | 174 | 0.0 | 0.0 | 0.04 | 0.13 | 0.13 | 89 | 1015.9 |
| 20260505053651 | 52 | 174 | 0.0 | 0.0 | 0.04 | 0.12 | 0.12 | 89 | 1015.9 |
| 20260505052700 | 53 | 174 | 0.0 | 0.0 | 0.04 | 0.10 | 0.10 | 89 | 1015.9 |
| 20260505051654 | 53 | 174 | 0.0 | 0.0 | 0.04 | 0.10 | 0.10 | 88 | 1015.9 |
| 20260505050659 | 53 | 191 | 0.0 | 0.0 | 0.06 | 0.09 | 0.10 | 87 | 1015.9 |
| 20260505041629 | 53 | 149 | 0.0 | 4.3 | 0.01 | 0.03 | 0.03 | 83 | 1016.5 |
| 20260505040640 | 54 | 185 | 0.0 | 2.6 | 0.00 | 0.02 | 0.02 | 85 | 1016.4 |
| 20260505035649 | 54 | 166 | 0.0 | 0.0 | 0.00 | 0.02 | 0.02 | 85 | 1016.0 |
| 20260505033453 | 54 | 166 | 0.0 | 0.0 | 0.01 | 0.01 | 0.01 | 82 | 1015.4 |
| 20260505032451 | 55 | 166 | 0.0 | 0.0 | 0.01 | 0.01 | 0.01 | 80 | 1015.2 |
| 20260505031506 | 55 | 166 | 0.0 | 0.0 | 0.00 | 0.00 | 0.00 | 78 | 1015.0 |
| 20260505030447 | 56 | 166 | 0.0 | 0.0 | 0.00 | 0.00 | 0.00 | 77 | 1015.0 |
| 20260505025430 | 56 | 169 | 0.0 | 0.9 | 0.00 | 0.00 | 0.00 | 76 | 1015.0 |
| 20260505024413 | 56 | 161 | 0.0 | 0.0 | 0.00 | 0.00 | 0.00 | 77 | 1015.2 |
| 20260505023410 | 57 | 169 | 0.0 | 0.0 | 0.00 | 0.00 | 0.00 | 77 | 1015.3 |
| 20260505022345 | 57 | 169 | 0.0 | 0.0 | 0.00 | 0.00 | 0.00 | 76 | 1015.1 |
| 20260505020155 | 57 | 170 | 0.0 | 0.0 | 0.00 | 0.00 | 0.00 | 74 | 1015.1 |
| 20260505015212 | 57 | 156 | 0.0 | 0.0 | 0.00 | 0.00 | 0.00 | 73 | 1015.1 |
| 20260505014216 | 58 | 174 | 0.0 | 2.6 | 0.00 | 0.00 | 0.00 | 74 | 1015.2 |
| 20260505013228 | 58 | 172 | 0.0 | 0.9 | 0.00 | 0.00 | 0.00 | 73 | 1015.3 |
| 20260505011129 | 58 | 146 | 0.0 | 0.9 | 0.00 | 0.00 | 0.00 | 76 | 1015.4 |
| 20260505005025 | 59 | 150 | 0.0 | 0.0 | 0.00 | 0.00 | 0.00 | 77 | 1015.6 |
| 20260505004001 | 59 | 148 | 0.0 | 0.0 | 0.00 | 0.00 | 0.00 | 78 | 1015.7 |
| 20260505002954 | 59 | 146 | 0.0 | 2.6 | 0.00 | 0.00 | 0.00 | 78 | 1015.7 |
| 20260505001945 | 59 | 152 | 0.0 | 0.9 | 0.00 | 0.00 | 0.00 | 78 | 1015.7 |
| 20260505001004 | 60 | 162 | 0.0 | 2.6 | 0.00 | 0.00 | 0.00 | 77 | 1015.7 |
| 20260505000008 | 60 | 146 | 0.0 | 2.6 | 0.00 | 0.00 | 0.00 | 77 | 1015.5 |
| 20260504234940 | 60 | 152 | 0.9 | 5.2 | 0.00 | 0.00 | 0.00 | 77 | 1015.6 |
| 20260504233919 | 61 | 141 | 0.9 | 5.2 | 0.00 | 0.00 | 0.00 | 75 | 1015.5 |
| 20260504232945 | 61 | 138 | 0.0 | 2.6 | 0.00 | 0.00 | 0.00 | 74 | 1015.4 |
| 20260504231911 | 61 | 139 | 0.0 | 2.6 | 0.00 | 0.00 | 0.00 | 72 | 1015.3 |
| 20260504230859 | 62 | 142 | 0.0 | 3.5 | 0.00 | 0.00 | 0.00 | 72 | 1015.3 |
| 20260504225850 | 62 | 143 | 0.9 | 5.2 | 0.00 | 0.00 | 0.00 | 71 | 1015.4 |
| 20260504224901 | 62 | 140 | 0.9 | 5.2 | 0.00 | 0.00 | 0.00 | 70 | 1015.5 |
| 20260504223923 | 63 | 162 | 0.9 | 5.2 | 0.00 | 0.00 | 0.00 | 69 | 1015.5 |
| 20260504222945 | 64 | 145 | 0.0 | 2.6 | 0.00 | 0.00 | 0.00 | 69 | 1015.6 |
| 20260504221938 | 64 | 150 | 0.9 | 5.2 | 0.00 | 0.00 | 0.00 | 67 | 1015.6 |
| 20260504220930 | 65 | 144 | 0.9 | 7.0 | 0.00 | 0.00 | 0.00 | 67 | 1015.7 |
| 20260504215930 | 65 | 143 | 1.7 | 7.0 | 0.00 | 0.00 | 0.00 | 66 | 1015.6 |
| 20260504214950 | 65 | 168 | 0.9 | 5.2 | 0.00 | 0.00 | 0.00 | 66 | 1015.7 |
| 20260504213940 | 65 | 140 | 0.9 | 5.2 | 0.00 | 0.00 | 0.00 | 68 | 1015.6 |
| 20260504212912 | 65 | 156 | 0.9 | 6.1 | 0.00 | 0.00 | 0.00 | 69 | 1015.8 |
| 20260504211936 | 64 | 164 | 0.9 | 6.1 | 0.00 | 0.00 | 0.00 | 69 | 1015.7 |
| 20260504210923 | 65 | 96 | 0.9 | 6.1 | 0.00 | 0.00 | 0.00 | 69 | 1015.7 |
| 20260504205924 | 65 | 145 | 0.9 | 3.5 | 0.00 | 0.00 | 0.00 | 68 | 1015.8 |
| 20260504204922 | 65 | 23 | 0.9 | 7.8 | 0.00 | 0.00 | 0.00 | 69 | 1015.9 |
| 20260504203937 | 64 | 165 | 1.7 | 7.8 | 0.00 | 0.00 | 0.00 | 70 | 1015.9 |
| 20260504202929 | 64 | 84 | 0.9 | 5.2 | 0.00 | 0.00 | 0.00 | 71 | 1015.8 |
| 20260504201949 | 64 | 131 | 0.0 | 3.5 | 0.00 | 0.00 | 0.00 | 69 | 1015.7 |
| 20260504201004 | 64 | 144 | 0.9 | 5.2 | 0.00 | 0.00 | 0.00 | 69 | 1015.8 |
| 20260504200013 | 66 | 87 | 0.9 | 5.2 | 0.00 | 0.00 | 0.00 | 65 | 1016.1 |
| 20260504195004 | 66 | 120 | 0.9 | 4.3 | 0.00 | 0.00 | 0.00 | 65 | 1016.1 |
| 20260504194019 | 66 | 143 | 0.9 | 6.1 | 0.00 | 0.00 | 0.00 | 66 | 1015.9 |
| 20260504193008 | 65 | 120 | 1.7 | 7.8 | 0.00 | 0.00 | 0.00 | 69 | 1015.8 |
| 20260504192029 | 64 | 137 | 2.6 | 7.8 | 0.00 | 0.00 | 0.00 | 68 | 1015.9 |
| 20260504185848 | 66 | 335 | 0.9 | 3.5 | 0.00 | 0.00 | 0.00 | 62 | 1016.0 |
| 20260504184909 | 66 | 160 | 0.9 | 3.5 | 0.00 | 0.00 | 0.00 | 63 | 1015.9 |
| 20260504183926 | 67 | 141 | 0.0 | 3.5 | 0.00 | 0.00 | 0.00 | 63 | 1016.0 |
| 20260504182918 | 65 | 49 | 0.9 | 3.5 | 0.00 | 0.00 | 0.00 | 65 | 1015.9 |
| 20260504181917 | 65 | 134 | 0.9 | 4.3 | 0.00 | 0.00 | 0.00 | 65 | 1015.8 |
| 20260504175743 | 65 | 150 | 1.7 | 5.2 | 0.00 | 0.00 | 0.00 | 63 | 1015.8 |
| 20260504174710 | 67 | 152 | 0.9 | 9.6 | 0.00 | 0.00 | 0.00 | 64 | 1015.8 |
| 20260504172624 | 66 | 154 | 0.9 | 3.5 | 0.00 | 0.00 | 0.00 | 64 | 1015.7 |
| 20260504171618 | 64 | 150 | 0.9 | 3.5 | 0.00 | 0.00 | 0.00 | 65 | 1015.6 |
| 20260504170642 | 64 | 152 | 0.9 | 3.5 | 0.00 | 0.00 | 0.00 | 66 | 1015.4 |
| 20260504160354 | 64 | 134 | 0.0 | 3.5 | 0.00 | 0.00 | 0.00 | 70 | 1015.6 |
| 20260504150949 | 60 | 187 | 0.0 | 0.0 | 0.00 | 0.00 | 0.00 | 86 | 1015.5 |
| 20260504140808 | 50 | 160 | 0.0 | 0.0 | 0.00 | 0.00 | 0.00 | 94 | 1015.4 |
| 20260504130651 | 45 | 160 | 0.0 | 0.0 | 0.00 | 0.00 | 0.00 | 94 | 1015.0 |
| 20260504110420 | 46 | 160 | 0.0 | 0.0 | 0.00 | 0.00 | 0.00 | 92 | 1014.8 |